Terminal Aerodrome Forecast
Issued by NWS Bismarck, ND

Home | Current Version | Previous Version | Graphics & Text | Print | Product List | Glossary On
Versions: 1 2 3 4 5 6 7 8 9 10 11 12 13 14 15
000
FTUS43 KBIS 160421 AAB
TAFISN
TAF AMD
KISN 160421Z 1604/1624 13011KT P6SM FEW008 BKN250
      TEMPO 1605/1609 BKN010
     FM161600 14013G18KT P6SM BKN120 BKN200
     FM162100 17009KT P6SM SCT200=

USA.gov is the U.S. government's official web portal to all federal, state and local government web resources and services.